Location: Gwatt
(46.7204°N, 7.6223°E)
Time: 14:33:43
(UTC+00:00)

deb Explorer IX - Pass Details

Date: 28 January 2021
Orbit: 537 x 1102 km, 38.8° (Epoch: 01 March)

Event Time Altitude Azimuth Distance (km) Brightness Sun altitude
Rises 16:31:09 0° 244° (WSW) 3,846 ? -1.4°
Reaches altitude 10° 16:34:10 10° 237° (WSW) 2,839 ? -1.9°
Maximum altitude 16:40:27 38° 172° (S) 1,413 ? -2.9°
Drops below altitude 10° 16:46:01 10° 106° (ESE) 2,511 ? -3.8°
Enters shadow 16:48:30 - 98° (E) 3,341 ? -4.2°
Sets 16:48:32 0° 98° (E) 3,356 - -4.2°
